Location: Bouillancy
(49.1149°N, 2.9308°E)
Time: 07:52:49
(UTC+00:00)

Nadezhda 4 Rocket - Pass Details

Date: 30 September 2020
Orbit: 949 x 992 km, 82.9° (Epoch: 29 October)

Event Time Altitude Azimuth Distance (km) Brightness Sun altitude
Rises 18:22:34 0° 349° (N) 3,635 7.2 -9.7°
Reaches altitude 10° 18:25:04 10° 349° (N) 2,687 6.6 -10.1°
Maximum altitude 18:31:12 80° 263° (W) 973 4.1 -11.1°
Drops below altitude 10° 18:37:20 10° 178° (S) 2,684 6.2 -12.1°
Sets 18:39:49 0° 177° (S) 3,631 6.9 -12.5°
